Regional Weather Roundup
Issued by NWS

Home | Current Version | Previous Version | Text Only | Print | Product List | Glossary Off
Versions: 1 2 3 4 5 6 7 8 9 10 11 12 13 14 15 16 17 18 19 20 21 22 23 24 25 26 27 28 29 30 31 32 33 34 35 36 37 38 39 40 41 42 43 44 45 46 47 48 49 50

255
ASUS45 KCYS 251710
RWRWY

WYOMING REGIONAL WEATHER ROUNDUP
NATIONAL WEATHER SERVICE CHEYENNE WY
1100 AM MDT WED APR 25 2018

NOTE:  "FAIR" INDICATES FEW OR NO CLOUDS BELOW 12,000 FEET
WITH NO SIGNIFICANT WEATHER AND/OR OBSTRUCTIONS TO VISIBILITY.

WYZ001-251800-
YELLOWSTONE NATIONAL PARK

CITY           SKY/WX    TMP DP  RH WIND       PRES   REMARKS
LK YELLOWSTONE   N/A     32  17  54 VRB3      30.31F
W YELLOWSTONE  NOT AVBL

$$
WYZ002>013-054>058-071-098>099-251800-
NORTHERN WYOMING

CITY           SKY/WX    TMP DP  RH WIND       PRES   REMARKS
JACKSON        FAIR      45  24  43 SW9       30.30F
CODY           FAIR      56  16  20 SE12      30.14F
GREYBULL         N/A     52  27  38 S9        30.17
WORLAND        FAIR      53  28  38 SE3       30.16F
SHERIDAN       FAIR      53  29  39 VRB3      30.07F
BUFFALO        FAIR      60  23  24 SE8       30.09F
GILLETTE         N/A     60  26  27 S21       30.09F
HULETT         FAIR      55  19  24 S20G25    30.12F
NEWCASTLE      FAIR      48  27  43 SE10      30.19F

$$
WYZ014>020-022>026-101>103-251800-
CENTRAL WYOMING

CITY           SKY/WX    TMP DP  RH WIND       PRES   REMARKS
BIG PINEY      FAIR      42  20  41 SW5       30.33F
PINEDALE       FAIR      45  23  42 SW6       30.32F
DUBOIS         FAIR      55   1  11 N10       30.19F
LANDER         FAIR      49  20  31 SE3       30.20F
RIVERTON       FAIR      47  26  44 VRB5      30.22F
CASPER         FAIR      52  24  33 SW24G32   30.23F
DOUGLAS        FAIR      52  22  30 VRB6      30.20F

$$
WYZ021-027>030-104>119-251800-
SOUTHERN WYOMING

CITY           SKY/WX    TMP DP  RH WIND       PRES   REMARKS
EVANSTON       FAIR      48  20  32 CALM      30.32F
KEMMERER       FAIR      45  18  33 S5        30.34F
FORT BRIDGER   FAIR      45  22  39 N3        30.36S
ROCK SPRINGS   FAIR      46  15  28 CALM      30.32F
DIXON          FAIR      45  21  38 CALM      30.38F
RAWLINS        FAIR      48  17  29 SW15G25   30.32F
SARATOGA       FAIR      46  18  31 SW6       30.34F
LARAMIE        FAIR      45  18  34 MISG      30.28F
CHEYENNE       FAIR      50  27  40 SW7       30.26F
TORRINGTON     FAIR      49  29  46 S3        30.23F
PINE BLUFFS    FAIR      52  30  43 CALM      30.27

$$




USA.gov is the U.S. government's official web portal to all federal, state and local government web resources and services.